EW7508 Weather Reports


time (UTC)temp
C
wind
direction
speed
KPH
gust
KPH
rain 1hr
cm
rain 24hr
cm
rain mn
cm
humidity
%
barometer
mb
20260508083007 8 344 1.6 6.4 0.00 0.00 0.00 48 1026.1
20260508081501 7 334 3.2 4.8 0.00 0.00 0.00 60 1026.0
20260508080101 7 334 0.0 4.8 0.00 0.00 0.00 62 1025.9
20260508074557 7 334 0.0 3.2 0.00 0.00 0.00 60 1025.7
20260508073104 7 334 0.0 4.8 0.00 0.00 0.00 62 1025.6
20260508071600 7 334 0.0 3.2 0.00 0.00 0.00 62 1025.5
20260508070050 7 334 1.6 3.2 0.00 0.00 0.00 66 1025.4
20260508064546 6 334 0.0 4.8 0.00 0.00 0.00 68 1025.2
20260508063042 6 325 6.4 9.7 0.00 0.00 0.00 73 1025.0
20260508061539 6 333 3.2 8.0 0.00 0.00 0.00 75 1024.8
20260508060036 6 331 4.8 9.7 0.00 0.00 0.00 75 1024.7
20260508054531 5 338 4.8 11.3 0.00 0.00 0.00 78 1024.5
20260508053045 5 340 6.4 11.3 0.00 0.00 0.00 78 1024.2
20260508051526 5 345 4.8 11.3 0.00 0.00 0.00 79 1024.0
20260508050021 5 357 0.0 8.0 0.00 0.00 0.00 79 1023.8
20260508044519 4 357 1.6 4.8 0.00 0.00 0.00 80 1023.7
20260508043018 4 355 0.0 3.2 0.00 0.00 0.00 83 1023.5
20260508041519 4 355 1.6 6.4 0.00 0.00 0.00 83 1023.4
20260508040012 5 349 3.2 12.9 0.00 0.00 0.00 84 1023.2
20260508034510 5 345 6.4 12.9 0.00 0.00 0.00 84 1023.1
20260508033006 5 353 8.0 16.1 0.00 0.00 0.00 85 1023.0
20260508031504 4 352 4.8 11.3 0.00 0.00 0.00 87 1022.8
20260508030001 4 337 6.4 9.7 0.00 0.00 0.00 90 1022.6
20260508024607 4 326 4.8 9.7 0.00 0.00 0.00 91 1022.4
20260508023057 4 297 1.6 6.4 0.00 0.00 0.00 92 1022.2
20260508021556 3 340 1.6 8.0 0.00 0.00 0.00 92 1022.1
20260508020054 4 326 0.0 6.4 0.00 0.00 0.00 92 1022.1
20260508014551 4 330 3.2 14.5 0.00 0.00 0.00 93 1021.9
20260508013051 4 310 1.6 9.7 0.00 0.00 0.00 93 1021.8
20260508011554 3 337 6.4 17.7 0.00 0.00 0.00 93 1021.7
20260508010047 3 286 3.2 8.0 0.00 0.00 0.00 92 1021.6
20260508004544 3 285 3.2 8.0 0.00 0.00 0.00 92 1021.5
20260508003042 3 283 1.6 6.4 0.00 0.00 0.00 92 1021.4
20260508001542 3 242 0.0 8.0 0.00 0.00 0.00 91 1021.3
20260508000040 3 332 1.6 8.0 0.00 0.00 0.00 91 1021.2
20260507234537 3 285 1.6 6.4 0.00 0.00 0.00 91 1021.1
20260507233053 3 297 3.2 12.9 0.00 0.00 0.00 91 1020.8
20260507231536 3 259 4.8 11.3 0.00 0.00 0.00 91 1020.7
20260507230029 4 267 1.6 9.7 0.00 0.00 0.00 91 1020.7
20260507224531 4 337 1.6 9.7 0.00 0.00 0.00 90 1020.5
20260507223028 4 276 4.8 14.5 0.00 0.00 0.00 89 1020.4
20260507221524 4 259 3.2 8.0 0.00 0.00 0.00 89 1020.3
20260507220022 4 337 1.6 9.7 0.00 0.00 0.00 88 1020.2
20260507214518 4 324 3.2 11.3 0.00 0.00 0.00 88 1020.1
20260507213022 4 270 1.6 9.7 0.00 0.00 0.00 88 1020.0
20260507211514 4 300 1.6 11.3 0.00 0.00 0.00 88 1019.9
20260507210011 4 272 3.2 12.9 0.00 0.00 0.00 89 1019.7
20260507204514 4 297 3.2 11.3 0.00 0.00 0.00 88 1019.5
20260507203007 5 291 1.6 9.7 0.00 0.00 0.00 86 1019.3
20260507201512 5 258 6.4 16.1 0.00 0.00 0.00 85 1019.2
20260507200008 5 292 4.8 16.1 0.00 0.00 0.00 82 1018.9
20260507194621 5 278 4.8 11.3 0.00 0.00 0.00 82 1018.8
20260507193059 5 329 3.2 19.3 0.00 0.00 0.00 81 1018.6
20260507191557 5 325 9.7 24.1 0.00 0.00 0.00 81 1018.4
20260507190058 5 335 14.5 24.1 0.00 0.00 0.00 82 1018.3
20260507184557 5 344 12.9 19.3 0.00 0.00 0.00 84 1018.2
20260507183056 5 324 11.3 24.1 0.00 0.00 0.00 81 1018.2
20260507181558 5 326 19.3 30.6 0.00 0.00 0.00 79 1018.3
20260507180053 6 333 19.3 27.4 0.00 0.00 0.00 76 1018.2
20260507174558 6 325 16.1 24.1 0.00 0.00 0.00 76 1018.1
20260507173119 6 336 17.7 32.2 0.00 0.00 0.00 75 1017.8
20260507171554 6 318 6.4 12.9 0.00 0.00 0.00 75 1017.8
20260507170053 6 312 12.9 22.5 0.00 0.00 0.00 77 1017.6
20260507164549 6 333 11.3 22.5 0.00 0.00 0.00 76 1017.3
20260507163041 6 334 14.5 29.0 0.00 0.00 0.00 77 1017.3
20260507161556 6 304 17.7 27.4 0.00 0.00 0.00 74 1017.3
20260507160041 6 312 17.7 27.4 0.00 0.00 0.00 74 1017.2
20260507154541 6 340 17.7 29.0 0.00 0.00 0.00 75 1017.1
20260507153036 6 274 11.3 24.1 0.00 0.00 0.00 75 1017.0
20260507151534 6 337 14.5 29.0 0.00 0.00 0.00 76 1016.9
20260507150034 6 328 14.5 27.4 0.00 0.00 0.00 79 1016.9
20260507144534 5 340 16.1 27.4 0.00 0.00 0.00 82 1017.0
20260507143032 5 341 11.3 19.3 0.00 0.00 0.00 87 1017.0
20260507141530 5 351 12.9 20.9 0.00 0.00 0.00 86 1016.9
20260507140029 5 1 12.9 25.7 0.00 0.00 0.00 87 1016.9
20260507134528 5 357 17.7 25.7 0.00 0.00 0.00 86 1016.7
20260507133024 5 6 19.3 30.6 0.00 0.00 0.00 84 1016.5
20260507131529 5 349 9.7 25.7 0.00 0.00 0.00 84 1016.5
20260507130025 5 355 12.9 20.9 0.00 0.00 0.00 82 1016.4
20260507124520 4 4 12.9 19.3 0.00 0.00 0.00 85 1016.2
20260507123016 5 349 11.3 19.3 0.00 0.00 0.00 84 1016.1
20260507121515 6 8 11.3 22.5 0.00 0.00 0.00 79 1015.9
20260507120034 6 355 4.8 11.3 0.00 0.00 0.00 75 1015.5
20260507114510 6 27 3.2 17.7 0.00 0.00 0.00 81 1015.3
20260507113033 6 346 11.3 22.5 0.00 0.00 0.00 80 1015.3
20260507111510 6 353 9.7 14.5 0.00 0.00 0.00 75 1015.3
20260507110011 7 6 6.4 20.9 0.00 0.00 0.00 73 1015.2
20260507104503 7 259 4.8 19.3 0.00 0.00 0.00 73 1015.0
20260507103001 7 274 6.4 14.5 0.00 0.00 0.00 74 1015.1
20260507101604 6 286 6.4 17.7 0.00 0.00 0.00 73 1015.1
20260507100109 6 287 3.2 16.1 0.00 0.00 0.00 74 1015.1
20260507094601 6 313 6.4 12.9 0.00 0.00 0.00 71 1015.2
20260507093058 6 36 1.6 6.4 0.00 0.00 0.00 74 1015.1
20260507091557 5 36 1.6 6.4 0.00 0.00 0.00 79 1015.1
20260507090056 5 26 3.2 12.9 0.00 0.00 0.00 77 1015.2
20260507084601 7 15 6.4 14.5 0.00 0.00 0.00 66 1015.2